When you browse on this site, cookies collect data to enhance your experience and personalize the content and advertising you see.
Visit our Privacy Policy to learn more. By continuing to use the site, you agree to this use of cookies and data.
  • In Hungary
  • List of Countries
  • For 7 days
  • Water Temperature
  • Satellite Maps
  • Weather Map
  • News
  • Weather Widgets
  • user-avatar
    Login

    Hourly Weather Ilya-Shor

    Today, 19 November, Monday

    Time Temperature Precipitation Wind Pressure Humidity
    00:00 -20°C° 0 mm 2 mps 759 mmHg 88%
    01:00 -21°C° 0 mm 2 mps 759 mmHg 88%
    02:00 -21°C° 0 mm 2 mps 759 mmHg 87%
    03:00 -21°C° 0 mm 2 mps 759 mmHg 87%
    04:00 -19°C° 0 mm 1 mps 759 mmHg 86%
    05:00 -19°C° 0 mm 1 mps 758 mmHg 86%
    06:00 -19°C° 0 mm 1 mps 758 mmHg 86%
    07:00 -19°C° 0 mm 1 mps 758 mmHg 85%
    08:00 -19°C° 0 mm 1 mps 757 mmHg 86%
    09:00 -21°C° 0 mm 2 mps 757 mmHg 86%
    10:00 -21°C° 0 mm 2 mps 756 mmHg 86%
    11:00 -23°C° 0 mm 3 mps 756 mmHg 87%
    12:00 -22°C° 0 mm 3 mps 755 mmHg 88%
    13:00 -23°C° 0 mm 4 mps 755 mmHg 89%
    14:00 -22°C° 0 mm 5 mps 754 mmHg 90%
    15:00 -22°C° 0 mm 5 mps 752 mmHg 90%
    16:00 -22°C° 0 mm 6 mps 751 mmHg 91%
    17:00 -20°C° 0.3 mm 7 mps 750 mmHg 91%
    18:00 -18°C° 0.3 mm 8 mps 748 mmHg 92%
    19:00 -16°C° 0.3 mm 9 mps 747 mmHg 93%
    20:00 -15°C° 0.8 mm 9 mps 746 mmHg 93%
    21:00 -14°C° 0.8 mm 9 mps 745 mmHg 94%
    22:00 -12°C° 0.8 mm 9 mps 744 mmHg 94%
    23:00 -11°C° 0.5 mm 9 mps 743 mmHg 94%

    Tomorrow, 20 November, Tuesday

    Time Temperature Precipitation Wind Pressure Humidity
    00:00 -10°C° 0.5 mm 10 mps 742 mmHg 94%
    01:00 -9°C° 0.5 mm 10 mps 741 mmHg 95%
    02:00 -7°C° 0.6 mm 10 mps 740 mmHg 94%
    03:00 -5°C° 0.6 mm 10 mps 739 mmHg 94%
    04:00 -4°C° 0.6 mm 10 mps 738 mmHg 94%
    05:00 -4°C° 0.5 mm 10 mps 738 mmHg 94%
    06:00 -3°C° 0.5 mm 9 mps 737 mmHg 95%
    07:00 -3°C° 0.5 mm 9 mps 736 mmHg 95%
    08:00 -3°C° 0.3 mm 9 mps 736 mmHg 95%
    09:00 -3°C° 0.3 mm 9 mps 735 mmHg 94%
    10:00 -4°C° 0.3 mm 9 mps 735 mmHg 94%
    11:00 -4°C° 0.4 mm 9 mps 734 mmHg 94%
    12:00 -4°C° 0.4 mm 9 mps 734 mmHg 93%
    13:00 -4°C° 0.4 mm 10 mps 733 mmHg 93%
    14:00 -4°C° 0.3 mm 10 mps 732 mmHg 92%
    15:00 -3°C° 0.3 mm 10 mps 731 mmHg 91%
    16:00 -3°C° 0.3 mm 10 mps 730 mmHg 90%
    17:00 -3°C° 0.2 mm 11 mps 729 mmHg 90%
    18:00 -5°C° 0.2 mm 12 mps 728 mmHg 89%
    19:00 -5°C° 0.2 mm 12 mps 727 mmHg 89%
    20:00 -4°C° 0.2 mm 11 mps 727 mmHg 89%
    21:00 -4°C° 0.2 mm 11 mps 727 mmHg 90%
    22:00 -4°C° 0.2 mm 10 mps 726 mmHg 90%
    23:00 -6°C° 0.3 mm 9 mps 727 mmHg 90%

    Day after tomorrow, 21 November, Wednesday

    Time Temperature Precipitation Wind Pressure Humidity
    00:00 -9°C° 0.3 mm 9 mps 728 mmHg 89%
    01:00 -10°C° 0.3 mm 8 mps 728 mmHg 89%
    02:00 -12°C° 0.1 mm 8 mps 729 mmHg 88%
    03:00 -14°C° 0.1 mm 7 mps 730 mmHg 88%
    04:00 -17°C° 0.1 mm 7 mps 731 mmHg 87%
    05:00 -17°C° 0 mm 6 mps 732 mmHg 89%
    06:00 -18°C° 0 mm 5 mps 733 mmHg 90%
    07:00 -19°C° 0 mm 4 mps 733 mmHg 91%
    08:00 -17°C° 0.1 mm 3 mps 734 mmHg 93%
    09:00 -16°C° 0.1 mm 2 mps 734 mmHg 94%
    10:00 -16°C° 0.1 mm 2 mps 735 mmHg 95%
    11:00 -16°C° 0 mm 2 mps 735 mmHg 95%
    12:00 -17°C° 0 mm 2 mps 735 mmHg 95%
    13:00 -18°C° 0 mm 3 mps 735 mmHg 95%
    14:00 -17°C° 0.1 mm 3 mps 735 mmHg 95%
    15:00 -18°C° 0.1 mm 4 mps 735 mmHg 95%
    16:00 -17°C° 0.1 mm 4 mps 735 mmHg 94%
    17:00 -17°C° 0.1 mm 3 mps 735 mmHg 93%
    18:00 -18°C° 0.1 mm 3 mps 735 mmHg 92%
    19:00 -19°C° 0.1 mm 3 mps 735 mmHg 90%
    20:00 -18°C° 0 mm 2 mps 735 mmHg 91%
    21:00 -19°C° 0 mm 2 mps 735 mmHg 91%
    22:00 -19°C° 0 mm 2 mps 735 mmHg 91%
    23:00 -19°C° 0 mm 2 mps 734 mmHg 93%

    22 November, Thursday

    Time Temperature Precipitation Wind Pressure Humidity
    00:00 -22°C° 0 mm 3 mps 734 mmHg 94%
    01:00 -22°C° 0 mm 3 mps 734 mmHg 95%
    02:00 -22°C° 0 mm 3 mps 734 mmHg 96%
    03:00 -22°C° 0 mm 3 mps 734 mmHg 96%
    04:00 -22°C° 0 mm 3 mps 734 mmHg 97%
    05:00 -22°C° 0 mm 3 mps 734 mmHg 97%
    06:00 -22°C° 0 mm 3 mps 734 mmHg 97%
    07:00 -22°C° 0 mm 3 mps 734 mmHg 97%
    08:00 -22°C° 0.1 mm 3 mps 734 mmHg 95%
    09:00 -22°C° 0.1 mm 3 mps 734 mmHg 94%
    10:00 -22°C° 0.1 mm 3 mps 734 mmHg 93%
    11:00 -19°C° 0.1 mm 2 mps 734 mmHg 93%
    12:00 -19°C° 0.1 mm 2 mps 735 mmHg 93%
    13:00 -18°C° 0.1 mm 2 mps 735 mmHg 92%
    14:00 -17°C° 0.1 mm 1 mps 736 mmHg 93%
    15:00 -18°C° 0.1 mm 1 mps 736 mmHg 93%
    16:00 -18°C° 0.1 mm 0 mps 736 mmHg 94%
    17:00 -18°C° 0 mm 1 mps 737 mmHg 94%
    18:00 -19°C° 0 mm 1 mps 737 mmHg 94%
    19:00 -19°C° 0 mm 1 mps 738 mmHg 94%
    20:00 -20°C° 0 mm 1 mps 738 mmHg 94%
    21:00 -20°C° 0 mm 1 mps 738 mmHg 95%
    22:00 -21°C° 0 mm 1 mps 738 mmHg 95%
    23:00 -22°C° 0 mm 1 mps 738 mmHg 96%

    23 November, Friday

    Time Temperature Precipitation Wind Pressure Humidity
    00:00 -22°C° 0 mm 1 mps 739 mmHg 96%
    01:00 -23°C° 0 mm 0 mps 739 mmHg 97%
    02:00 -23°C° 0 mm 1 mps 739 mmHg 97%
    03:00 -24°C° 0 mm 1 mps 739 mmHg 97%
    04:00 -24°C° 0 mm 1 mps 739 mmHg 98%
    05:00 -24°C° 0 mm 1 mps 739 mmHg 98%
    06:00 -27°C° 0 mm 2 mps 739 mmHg 98%
    07:00 -27°C° 0 mm 2 mps 739 mmHg 98%
    08:00 -27°C° 0 mm 2 mps 739 mmHg 98%
    09:00 -30°C° 0 mm 3 mps 739 mmHg 98%
    10:00 -30°C° 0 mm 3 mps 739 mmHg 98%
    11:00 -30°C° 0 mm 3 mps 739 mmHg 98%
    12:00 -30°C° 0 mm 3 mps 739 mmHg 98%
    13:00 -30°C° 0 mm 3 mps 739 mmHg 97%
    14:00 -30°C° 0 mm 3 mps 738 mmHg 97%
    15:00 -30°C° 0 mm 3 mps 738 mmHg 97%
    16:00 -30°C° 0 mm 3 mps 738 mmHg 97%
    17:00 -30°C° 0 mm 3 mps 737 mmHg 96%
    18:00 -29°C° 0 mm 3 mps 737 mmHg 95%
    19:00 -29°C° 0 mm 3 mps 736 mmHg 94%
    20:00 -27°C° 0 mm 2 mps 736 mmHg 92%
    21:00 -26°C° 0 mm 2 mps 735 mmHg 90%
    22:00 -26°C° 0 mm 2 mps 735 mmHg 88%
    23:00 -26°C° 0 mm 3 mps 734 mmHg 86%

    24 November, Saturday

    Time Temperature Precipitation Wind Pressure Humidity
    00:00 -26°C° 0 mm 3 mps 734 mmHg 83%
    01:00 -25°C° 0 mm 3 mps 733 mmHg 80%
    02:00 -25°C° 0 mm 3 mps 732 mmHg 78%
    03:00 -26°C° 0 mm 4 mps 732 mmHg 76%
    04:00 -26°C° 0 mm 4 mps 731 mmHg 75%
    05:00 -26°C° 0 mm 4 mps 730 mmHg 75%
    06:00 -27°C° 0 mm 5 mps 730 mmHg 75%
    07:00 -27°C° 0 mm 5 mps 729 mmHg 75%
    08:00 -27°C° 0 mm 5 mps 729 mmHg 77%
    09:00 -28°C° 0 mm 5 mps 729 mmHg 78%
    10:00 -28°C° 0 mm 5 mps 729 mmHg 80%
    11:00 -27°C° 0 mm 4 mps 729 mmHg 81%
    12:00 -27°C° 0 mm 4 mps 729 mmHg 83%
    13:00 -27°C° 0 mm 4 mps 730 mmHg 84%
    14:00 -27°C° 0 mm 4 mps 730 mmHg 85%
    15:00 -27°C° 0 mm 4 mps 730 mmHg 86%
    16:00 -26°C° 0 mm 3 mps 730 mmHg 86%
    17:00 -26°C° 0 mm 3 mps 731 mmHg 86%
    18:00 -26°C° 0 mm 3 mps 731 mmHg 87%
    19:00 -26°C° 0 mm 3 mps 731 mmHg 87%
    20:00 -26°C° 0 mm 3 mps 732 mmHg 86%
    21:00 -26°C° 0 mm 3 mps 732 mmHg 86%
    22:00 -26°C° 0 mm 2 mps 732 mmHg 86%
    23:00 -26°C° 0 mm 2 mps 733 mmHg 86%
    Show more